SPACEBEE-94 (48937 NORAD) Tracking and Keplerian Element Data

This shows tracking and keplerian element data for the satellite.

Feedback or suggestion? Click here.




ElementValue
Catalog48937
NameSPACEBEE-94
Epoch Orbit1389
Epoch Day268.61707576
Epoch Year2021
RAAN36.2895
Inclination97.5196
Eccentricity0.0016427
Argument of Perigee300.0219
Mean Anonmoly59.9382
Mean Motion15.14670773
Decay Rate7.549E-05
L11 48937U 21059BL 21268.61707576 .00007549 00000-0 41022-3 0 9993
L22 48937 97.5196 36.2895 0016427 300.0219 59.9382 15.14670773 13896

Live tracking and technical data element details for SPACEBEE-94 (NORAD 48937). SPACEBEE-94 can be tracked NOW for your location showing map with azimuth and elevation plus other details from your city location.

Track the satellite on the map from your city or location and see movement details for azimuth, elevation, latitude, longitude, range, height, and movement on the map or in text.







IsCatalogInMostPopularTable: catalog: 48937, numindb: 14
Update: records affected: 1



GetName: 48937 SPACEBEE-94

Hit Count: updated at: Sun, 26 Sep 2021 15:47:23 GMT